Погода в Софпороге

Россия / Республика Карелия     65°48′07″N   31°24′39″E
темп.,
°C
ветер,
м/с
пор.,
м/с
влажн.,
%
обл.,
%
осадки,
мм/ч
давл.,
гПа
погр.,
м
26 января, вт
вт2600:00−5ссв239797 0.3 1003122
03:00−5всв229798 0.5 100454
06:00−4всв2498100 0.2 1005120
09:00−2вюв2398100 0.5 1005132
12:000ююв26100100 0.4 1006314
15:000ююв1399100 0.5 1007112
18:00−1вюв019999 0.3 100735
21:00−3ссв2398100 0.4 1007121
27 января, ср
ср2700:00−7с3496100 0.3 1006146
03:00−8ссв4696100 0.7 1006192
06:00−8ссв4896100 0.8 1005286
09:00−8св4995100 2.3 1004365
12:00−9св4995100 1.1 1004364
15:00−11св4895100 2.1 1003360
18:00−11св4895100 0.9 1004398
21:00−12св4895100 1.6 1004387
28 января, чт
чт2800:00−13св4894100 0.3 1005388
03:00−13св3795100 0.5 1007397
06:00−13всв4795100 0.4 1008414
09:00−14всв4895100 0.8 1009397
12:00−13всв4895100 0.6 1010374
15:00−13в4895100 1.1 1011404
18:00−12в51094100 0.5 1011481
21:00−12в51094100 0.8 1011481
29 января, пт
пт2900:00−12в51094100 0.3 1011440
03:00−12всв51094100 0.5 1011413
06:00−11всв51094100 0.3 1010430
09:00−11всв51193100 0.4 1009478
12:00−11всв51193100 0.3 1009528
15:00−11всв61194100 1.3 1007548
18:00−12св61194100 0.8 1006582
21:00−11св51194100 1.6 1004588
30 января, сб
сб3000:00−10всв51194100 0.9 1002548
03:00−10всв51194100 2.1 1000572
06:00−10св51194100 1.3 998581
09:00−10св61193100 2.4 996598
12:00−10св51192100 0.3 996623
15:00−10св61094100 0.9 994634
18:00−11св51194100 0.6 994539
21:00−11св51094100 1.4 993523